Location: De Har
(53.3413°N, 6.6858°E)
Time: 16:59:05
(UTC+00:00)

Cosmos 1980 Rocket - Pass Details

Date: 22 April 2026
Orbit: 826 x 850 km, 71.0° (Epoch: 9 May)

Event Time Altitude Azimuth Distance (km) Brightness Sun altitude
Rises 00:15:53 0° 326° (NW) 3,426 6.0 -23.8°
Reaches altitude 10° 00:18:23 10° 321° (NW) 2,487 5.1 -23.8°
Maximum altitude 00:23:54 52° 247° (WSW) 1,053 2.4 -23.6°
Enters shadow 00:24:21 51° 231° (SW) 1,068 2.4 -23.6°
